Regional Weather Roundup
Issued by NWS

Home | Current Version | Previous Version | Text Only | Print | Product List | Glossary Off
Versions: 1 2 3 4 5 6 7 8 9 10 11 12 13 14 15 16 17 18 19 20 21 22 23 24 25 26 27 28 29 30 31 32 33 34 35 36 37 38 39 40 41 42 43 44 45 46 47 48 49 50

000
ASUS43 KLOT 032300
RWRIL

ILLINOIS REGIONAL WEATHER ROUNDUP
NATIONAL WEATHER SERVICE CHICAGO/ROMEOVILLE IL
600 PM CDT FRI JUL 03 2015

NOTE: "FAIR" INDICATES FEW OR NO CLOUDS BELOW 12,000 FEET WITH NO
SIGNIFICANT WEATHER AND/OR OBSTRUCTIONS TO VISIBILITY.

* THESE STATIONS ARE NOT UNDER NWS QUALITY CONTROL. THEY ALSO MAY NOT
  REPORT WEATHER SUCH AS PRECIPITATION OR FOG.

ILZ001-002-007-009-015-016-024-040000-
NORTHWEST ILLINOIS

CITY           SKY/WX    TMP DP  RH WIND       PRES   REMARKS
MOLINE         SUNNY     77  57  50 CALM      29.92S
STERLING*      PTSUNNY   79  61  53 W7        29.93S HX  80
$$

ILZ003-004-008-010-011-017-018-040000-
NORTH CENTRAL ILLINOIS

CITY           SKY/WX    TMP DP  RH WIND       PRES   REMARKS
ROCKFORD       MOSUNNY   77  57  50 NW6       29.94S
$$

ILZ005-006-012>014-019>023-040000-
NORTHEAST ILLINOIS

CITY           SKY/WX    TMP DP  RH WIND       PRES   REMARKS
CHICAGO-OHARE  PTSUNNY   74  54  49 E7        29.91F
CHICAGO-MIDWAY MOSUNNY   75  53  46 E9        29.92S
AURORA         SUNNY     77  56  48 N5        29.92F
WAUKEGAN       SUNNY     68  53  58 E7        29.93S
DUPAGE AIRPORT MOSUNNY   77  56  48 NE5       29.91F
WHEELING       SUNNY     72  52  49 NE8       29.94S
NORTHERLY ISL    N/A     66  58  75 NE3         N/A
$$

LMZ740>746-040000-
SOUTHERN LAKE MICHIGAN

STATION/POSITION SKY/WX   TEMP    WIND        PRES    VSBY  WAVE
                          AIR SEA DIR/SP/G                  HT/PER
                          (F)     (DEG/KT/KT) (MB)    (MI)  (FT/S)
HARRISON CRIB              63      50/  9/ 10   N/A
BURNHAM HARBOR             66      40/  5/  7   N/A
CALUMET HARBOR             68      20/  6/  8   N/A
BURNS HARBOR               65      40/  8/  9 1014.2F
MICHIGAN CITY              63     360/  6/  6   N/A
MICHIGAN CITY 6N           64 65   20/  6/  8   N/A           1/ 3
ST. JOSEPH                 64 63                N/A           1
$$

ILZ025>027-034>036-040-047-049-050-058-095>099-040000-
WEST-CENTRAL ILLINOIS

CITY           SKY/WX    TMP DP  RH WIND       PRES   REMARKS
QUINCY         SUNNY     79  58  48 NW7       29.92S HX  80
MACOMB*        SUNNY     77  59  53 N3        29.94F
$$

ILZ028>032-037-038-041>044-048-051>054-059>061-040000-
CENTRAL ILLINOIS

CITY           SKY/WX    TMP DP  RH WIND       PRES   REMARKS
DECATUR        MOSUNNY   78  65  63 NE10      29.90F HX  80
PEORIA         MOSUNNY   80  59  48 NE5       29.91F HX  81
SPRINGFIELD    SUNNY     80  64  58 N8        29.90F HX  82
TAYLORVILLE    NOT AVBL
$$

ILZ033-039-045-046-055>057-062-063-040000-
EAST-CENTRAL ILLINOIS

CITY           SKY/WX    TMP DP  RH WIND       PRES   REMARKS
CHAMPAIGN      MOSUNNY   76  62  62 NE8       29.90F
MATTOON        MOSUNNY   76  65  68 NE13      29.88S
$$

ILZ079-100>102-040000-
SOUTHWEST ILLINOIS

CITY           SKY/WX    TMP DP  RH WIND       PRES   REMARKS
BELLEVILLE     SUNNY     81  69  65 N7        29.86S HX  84
CAHOKIA*       SUNNY     82  64  54 N12       29.87S HX  83
SPARTA*        MOSUNNY   81  64  56 N8        29.87S HX  83
$$

ILZ064>066-069>071-074>076-080>082-084>086-088>090-092>094-040000-
SOUTH-CENTRAL ILLINOIS

CITY           SKY/WX    TMP DP  RH WIND       PRES   REMARKS
CARBONDALE     SUNNY     82  65  56 NW8       29.86R HX  84
MARION         MOSUNNY   82  68  61 NW7       29.86S HX  85
MT. VERNON     CLOUDY    75  64  69 N6        29.87S
$$

ILZ067-068-072-073-078-083-087-091-040000-
SOUTHEAST ILLINOIS

CITY           SKY/WX    TMP DP  RH WIND       PRES   REMARKS
LAWRENCEVILLE  PTSUNNY   77  67  71 N9        29.86R
$$

ABBREVIATIONS USED IN REMARKS
   TC - TEMPERATURE IN CELSIUS
  WCI - WIND CHILL INDEX
   HX - HEAT INDEX
  VSB - VISIBILITY
$$



USA.gov is the U.S. government's official web portal to all federal, state and local government web resources and services.